Location: Tel Aviv
(32.0670°N, 34.7670°E)
Time: 20:52:44
(UTC+02:00)

CUTE-I - Pass Details

Date: 15 December 2025
Orbit: 805 x 817 km, 98.7° (Epoch: 21 January)

Event Time Altitude Azimuth Distance (km) Brightness Sun altitude
Rises 18:22:34 0° 203° (SSW) 3,302 ? -21.5°
Reaches altitude 10° 18:25:34 10° 221° (SW) 2,377 ? -22.1°
Maximum altitude 18:29:12 19° 265° (W) 1,836 ? -22.8°
Drops below altitude 10° 18:32:53 10° 309° (NW) 2,390 ? -23.6°
Sets 18:35:55 0° 327° (NNW) 3,327 ? -24.2°
